Tracking 20083 objects as of 9-Dec-2019
HD Live streaming from Space Station
objects crossing your sky now

FENGYUN 1C DEB

Track FENGYUN 1C DEB now!
10-day predictions


NORAD ID: 32304
Int'l Code: 1999-025CWV
Perigee: 736.1 km
Apogee: 829.6 km
Inclination: 99.4 °
Period: 100.4 minutes
Semi major axis: 7153 km
RCS: 0.0093 m2 (small)
Launch date: May 10, 1999
Source: People's Republic of China (PRC)
Launch site: Taiyaun Space Center, China (TSC)

Note: This is SATELLITE DEBRIS
aabbcc
Your satellite tracking list
Your tracking list is empty




NASA's NSSDC Master Catalog

Two Line Element Set (TLE):
1 32304U 99025CWV 19341.98357642 +.00000261 +00000-0 +10746-3 0  9999
2 32304 099.3892 054.6492 0065303 139.2085 221.4013 14.34809417246779
Source of the keplerian elements: AFSPC